Il Post

 
 

Meteo Giornale » Osservazioni meteo Austria » Salisburgo

ore: 15:20 - Osservazioni Meteo Salisburgo
Lat. 47° 48' N Lon. 13° 0' E Alt. 430 metri s.l.m.

coperto_pioggia Europe/Vienna

13 °C

Pioggia Debole

Temp. 24 Ore

11 °C

17 °C

Ovest

13 Km/h

Dew point 11 °C

Umidità 87 %

Visibilità  10 Km

Il sole sorge alle ore 06:25

Il sole tramonta alle ore 19:50

Data e Ora Cielo e Fenomeni T °C DP °C Um. % Pres. hPa Vis. km Vento km/h
Oggi h: 15:20 coperto_pioggia Pioggia Debole 13 11 87 1019 10 O 13
Oggi h: 14:50 molto_nuvoloso Molto Nuvoloso 13 11 87 1019 10 O 7.4
Oggi h: 14:20 molto_nuvoloso Molto Nuvoloso 13 11 87 1019 10 O 11.1
Oggi h: 13:50 molto_nuvoloso Molto Nuvoloso 13 11 87 1019 10 O/NO 16.7
Oggi h: 13:20 coperto_pioggia Pioggia Debole 13 11 87 1018 10 O/NO 18.5
Oggi h: 12:50 coperto_pioggia Pioggia Debole 13 11 87 1018 10 O/NO 18.5
Oggi h: 12:20 coperto_pioggia Pioggia 12 11 93 1018 8 O/NO 16.7
Oggi h: 11:50 coperto_pioggia Pioggia 12 11 93 1018 8 O/NO 16.7
Oggi h: 11:20 coperto_pioggia Pioggia 12 11 93 1018 10 O/NO 16.7
Oggi h: 10:50 coperto_pioggia Pioggia 12 11 93 1017 8 O/NO 20.3
Oggi h: 10:20 coperto_pioggia Pioggia 12 11 93 1017 7 O/NO 16.7
Oggi h: 09:50 coperto_pioggia Pioggia 12 11 93 1017 6 O/NO 14.8
Oggi h: 09:20 coperto_pioggia Pioggia 12 11 93 1017 9 O/NO 14.8
Oggi h: 08:50 coperto_pioggia Pioggia 12 11 93 1017 6 O/NO 13
Oggi h: 08:20 coperto_pioggia Pioggia 12 11 93 1016 9 O/NO 14.8
Oggi h: 07:50 coperto_pioggia Pioggia 12 11 93 1016 8 O/NO 16.7
Oggi h: 07:20 coperto_pioggia Pioggia 12 11 93 1016 9 O/NO 16.7
Oggi h: 06:50 coperto_pioggia Pioggia 12 11 93 1015 9 O/NO 16.7
Oggi h: 06:20 coperto_pioggia Pioggia Debole 12 11 93 1015 10 O/NO 16.7
Oggi h: 05:50 coperto_pioggia Pioggia Debole 12 10 87 1015 10 O/NO 13
Oggi h: 05:20 coperto_pioggia Pioggia 12 11 93 1015 10 O/NO 11.1
Oggi h: 04:50 coperto_pioggia Pioggia Debole 12 11 93 1015 10 O/NO 13
Oggi h: 04:20 coperto_pioggia Pioggia Debole 11 10 93 1015 10 O/NO 9.3
Oggi h: 03:50 coperto_pioggia Pioggia 11 10 93 1015 10 N 3.7
Oggi h: 03:20 coperto_pioggia Pioggia 11 10 93 1015 10 S/SO 11.1
Oggi h: 02:50 coperto_pioggia Pioggia 11 10 93 1015 10 S/SO 7.4
Oggi h: 02:20 coperto_pioggia Pioggia 11 10 93 1015 9 N 3.7
Oggi h: 01:50 nuvoloso_piovaschi Debole Rovescio di Pioggia 11 10 93 1015 10 N 5.5
Oggi h: 01:20 nuvoloso_piovaschi Debole Rovescio di Pioggia 11 10 93 1016 10 N 3.7
Oggi h: 00:50 nuvoloso_piovaschi Debole Rovescio di Pioggia 12 10 87 1016 10 S 7.4
Oggi h: 00:20 molto_nuvoloso Molto Nuvoloso 11 10 93 1016 10 S/SE 7.4
Ieri h: 23:50 molto_nuvoloso Molto Nuvoloso 12 9 81 1016 10 N 5.5
Ieri h: 23:20 molto_nuvoloso Molto Nuvoloso 12 10 87 1016 10 N 1.8
Ieri h: 22:50 molto_nuvoloso Molto Nuvoloso 12 10 87 1016 10 N 3.7
Ieri h: 22:20 coperto_pioggia Pioggia Debole 12 10 87 1016 10 N 5.5
Ieri h: 21:50 coperto_pioggia Pioggia Debole 12 10 87 1016 10 O/SO 13
Ieri h: 21:20 coperto_pioggia Pioggia 12 11 93 1016 10 NO 14.8
Ieri h: 20:50 coperto_pioggia Pioggia 13 12 93 1016 10 N/NO 7.4
Ieri h: 20:20 coperto_pioggia Pioggia Debole 13 11 87 1016 10 NO 14.8
Ieri h: 19:50 coperto_pioggia Pioggia Debole 13 11 87 1015 10 N 5.5
Ieri h: 19:20 coperto_pioggia Pioggia Debole 14 13 93 1015 10 O 7.4
Ieri h: 18:50 coperto_pioggia Pioggia 13 13 100 1015 10 N 5.5
Ieri h: 18:20 coperto_pioggia Pioggia 14 13 93 1014 10 N/NO 14.8
Ieri h: 17:50 coperto_pioggia Pioggia 14 13 93 1014 10 NO 9.3
Ieri h: 17:20 coperto_pioggia Pioggia 15 13 87 1014 10 N 3.7
Ieri h: 16:50 coperto_pioggia Pioggia Debole 14 12 87 1014 10 N/NO 9.3
Ieri h: 16:20 coperto_pioggia Pioggia Debole 16 13 82 1014 10 O/NO 16.7
Ieri h: 15:50 coperto_pioggia Pioggia Debole 17 14 82 1014 10 S/SE 7.4